[[{"header":{"parameterUnit":"m.s-1","parameterCategory":1,"la1":30.2991,"la2":30.254,"lo1":-89.0895,"lo2":-89.0444,"dy":0.0017,"dx":0.0017,"nx":28,"ny":28,"refTime":"2023-05-23T21:00:00:Z","depth":0,"parameterNumber":2,"parameterNumberName":"U-component_of_WINDS"},"data":[0,0,0,0,0,0,0,0,0,0,0,0,0,0,0,0,0,0,0,0,0,0,0,0,0,0,0,0,0,0,0,0,0,0,0,0,0,0,0,0,0,0,0,0,0,0,0,0,0,0,0,0,0,0,0,0,0,0,-3.2914,-3.2913,0,-3.2847,-3.2847,-3.2846,-3.2747,-3.2745,-3.2743,-3.2741,-3.2676,-3.2676,-3.2676,0,0,0,0,0,0,0,0,0,0,0,0,0,-3.2956,-3.2956,-3.2914,-3.2913,-3.2912,-3.2848,-3.2847,-3.2846,-3.2747,-3.2745,-3.2743,-3.2741,-3.2676,-3.2676,-3.2676,0,0,0,0,0,0,0,0,0,0,0,0,0,-3.2919,-3.2956,-3.2914,-3.2855,-3.2849,-3.2848,-3.2847,-3.2846,-3.2747,-3.2745,-3.2742,-3.274,-3.2676,-3.2676,-3.2676,-3.2728,0,0,-3.2675,-3.2675,0,0,0,0,0,0,0,0,-3.2921,-3.2917,-3.2864,-3.2859,-3.2852,-3.2802,-3.2837,-3.2806,-3.2748,-3.2786,-3.2741,-3.2738,-3.272,-3.2716,-3.271,-3.2725,-3.2722,-3.2675,-3.2675,-3.2675,-3.2675,0,0,0,0,0,0,0,-3.2924,-3.292,-3.2888,-3.2864,-3.2856,-3.2832,-3.2824,-3.2831,-3.2769,-3.2782,-3.2775,-3.2768,-3.2717,-3.271,-3.2708,-3.2721,-3.2675,-3.2675,-3.2675,-3.2675,-3.2774,-3.2777,0,0,0,0,0,0,-3.2935,-3.2922,-3.289,-3.2886,-3.2881,-3.2834,-3.2824,-3.2821,-3.2769,-3.2758,-3.2771,-3.2764,-3.2712,-3.2708,-3.2705,-3.2761,-3.2675,-3.2675,-3.2675,-3.2771,-3.2775,-3.2777,0,0,0,0,0,0,-3.2936,-3.2933,-3.2892,-3.2902,-3.2895,-3.2836,-3.2833,-3.2821,-3.2815,-3.276,-3.2748,-3.2776,-3.271,-3.2705,-3.2722,-3.2758,-3.2675,-3.2675,-3.2768,-3.2772,-3.2776,-3.2876,0,0,0,0,0,0,-3.2938,-3.2934,-3.2953,-3.2903,-3.2895,-3.2911,-3.2835,-3.2822,-3.2814,-3.2805,-3.2761,-3.2751,-3.2707,-3.2723,-3.2722,-3.2756,-3.2675,-3.2765,-3.277,-3.2775,-3.2869,-3.2883,-3.2894,0,0,0,0,0,-3.294,-3.2984,-3.2954,-3.2951,-3.2917,-3.2913,-3.2908,-3.2856,-3.2818,-3.2836,-3.2801,-3.2753,-3.2754,-3.2726,-3.2724,-3.2758,-3.2762,-3.2768,-3.2774,-3.2863,-3.288,-3.2894,0,0,0,0,0,0,-3.304,-3.2977,-3.2943,-3.2972,-3.2949,-3.2896,-3.2918,-3.2875,-3.2863,-3.2854,-3.279,-3.2781,-3.2807,-3.2784,-3.2754,-3.2805,-3.2751,-3.2757,-3.2819,-3.2834,-3.2847,-3.2852,-3.2675,0,0,0,0,0,-3.3066,-3.3068,-3.3012,-3.3044,-3.3033,-3.2978,-3.2974,-3.2936,-3.2909,-3.2899,-3.2864,-3.2841,-3.2836,-3.2834,-3.2826,-3.2865,-3.2854,-3.2888,-3.2901,-3.2911,-3.2917,-3.2935,-3.295,-3.2798,-3.2797,-3.2797,0,0,-3.3119,-3.3084,-3.3089,-3.3063,-3.304,-3.3043,-3.297,-3.2977,-3.2979,-3.29,-3.2914,-3.2888,-3.2857,-3.2886,-3.2896,-3.2867,-3.2957,-3.2919,-3.2928,-3.2928,-3.2943,-3.2958,-3.297,-3.2802,-3.2801,-3.28,0,0,-3.3217,-3.3192,-3.3214,-3.3193,-3.3159,-3.3121,-3.3127,-3.3081,-3.306,-3.3073,-3.3013,-3.3015,-3.3008,-3.2988,-3.2977,-3.3068,-3.3023,-3.3067,-3.3133,-3.3152,-3.3164,-3.3174,-3.3206,-3.3218,-3.3073,-3.3073,-3.3074,0,-3.3288,-3.329,-3.3232,-3.3242,-3.3232,-3.316,-3.3182,-3.3165,-3.313,-3.3125,-3.3093,-3.3082,-3.3057,-3.3079,-3.3101,-3.3094,-3.3099,-3.3072,-3.3166,-3.3176,-3.3185,-3.3214,-3.3227,-3.3079,-3.3078,-3.3078,-3.3077,0,-3.3378,-3.338,-3.3403,-3.337,-3.3363,-3.338,-3.3324,-3.3324,-3.3286,-3.3253,-3.3266,-3.3233,-3.3217,-3.3219,-3.3183,-3.3236,-3.3219,-3.3178,-3.3122,-3.3206,-3.3232,-3.3243,-3.3087,-3.3085,-3.3083,-3.3082,0,0,-3.3538,-3.3472,-3.3482,-3.3466,-3.3423,-3.3423,-3.3437,-3.342,-3.3421,-3.34,-3.3409,-3.3404,-3.3365,-3.3353,-3.3314,-3.333,-3.3403,-3.3286,-3.3285,-3.3309,-3.3459,-3.349,-3.3504,-3.3373,-3.3375,-3.3376,-3.3461,0,-3.3627,-3.3645,-3.3593,-3.3625,-3.3626,-3.3557,-3.3568,-3.3544,-3.3513,-3.3509,-3.3475,-3.3472,-3.3422,-3.3414,-3.3427,-3.3391,-3.3432,-3.3384,-3.3381,-3.3382,-3.339,-3.3517,-3.355,-3.3632,-3.3471,-3.3473,-3.3474,0,-3.3733,-3.3716,-3.3748,-3.3702,-3.3701,-3.3712,-3.3692,-3.369,-3.366,-3.3636,-3.3622,-3.3576,-3.3586,-3.3533,-3.3545,-3.3514,-3.351,-3.3492,-3.3494,-3.3491,-3.3433,-3.3518,-3.3657,-3.3669,-3.349,-3.3489,-3.3488,0,-3.3846,-3.3832,-3.3848,-3.3837,-3.3784,-3.3793,-3.3772,-3.3739,-3.3732,-3.3715,-3.371,-3.3695,-3.3687,-3.3676,-3.3627,-3.3593,-3.3646,-3.3588,-3.3626,-3.3628,-3.364,-3.364,-3.378,-3.3639,-3.3638,-3.3638,-3.3638,0,-3.3951,-3.3973,-3.3898,-3.3908,-3.393,-3.3871,-3.3895,-3.3866,-3.3838,-3.3842,-3.3782,-3.3787,-3.3722,-3.372,-3.3681,-3.3697,-3.3694,-3.3675,-3.3665,-3.3681,-3.3683,-3.3677,-3.367,-3.3641,-3.3641,-3.364,-3.3639,0,-3.4081,-3.4031,-3.4045,-3.3993,-3.3981,-3.4,-3.3956,-3.3963,-3.3928,-3.3933,-3.3931,-3.3876,-3.3871,-3.382,-3.3804,-3.3778,-3.3809,-3.3788,-3.3819,-3.3812,-3.3852,-3.3849,-3.3993,-3.4008,-3.3858,-3.3859,-3.3861,0,-3.415,-3.4165,-3.4115,-3.4113,-3.4094,-3.4092,-3.4084,-3.4026,-3.402,-3.3987,-3.3998,-3.3988,-3.3976,-3.397,-3.3929,-3.3916,-3.3893,-3.3945,-3.3891,-3.3906,-3.3894,-3.3893,-3.3894,-3.3956,-3.3958,-3.396,-3.3961,0,-3.428,-3.4254,-3.4245,-3.4227,-3.4219,-3.4203,-3.4183,-3.4184,-3.412,-3.4117,-3.411,-3.4101,-3.4083,-3.4073,-3.4053,-3.4031,-3.3986,-3.3978,-3.3986,-3.4002,-3.4019,-3.401,-3.3849,-3.3975,-3.3974,-3.3973,-3.3972,-3.3971,-3.4381,-3.4391,-3.4357,-3.4348,-3.4327,-3.4309,-3.4313,-3.4278,-3.4271,-3.4251,-3.4218,-3.4216,-3.4185,-3.4152,-3.4134,-3.4132,-3.4105,-3.4117,-3.412,-3.4124,-3.4132,-3.402,-3.4128,-3.4127,-3.4127,-3.4127,-3.4126,0,-3.4506,-3.4481,-3.4474,-3.4447,-3.444,-3.4397,-3.4372,-3.437,-3.4368,-3.4343,-3.4332,-3.4324,-3.4314,-3.4272,-3.4257,-3.4263,-3.4242,-3.4261,-3.426,-3.4256,-3.4157,-3.4151,-3.4279,-3.4278,-3.4278,-3.4278,-3.4278,-3.4278,-3.4571,-3.4585,-3.4555,-3.4558,-3.4532,-3.4529,-3.4518,-3.4502,-3.4481,-3.4474,-3.4465,-3.4437,-3.4405,-3.4388,-3.4376,-3.4364,-3.4362,-3.4388,-3.4369,-3.4277,-3.4263,-3.4249,-3.4243,-3.4388,-3.4388,-3.4468,-3.4469,-3.4469]},{"header":{"parameterUnit":"m.s-1","parameterCategory":1,"la1":30.2991,"la2":30.254,"lo1":-89.0895,"lo2":-89.0444,"dy":0.0017,"dx":0.0017,"nx":28,"ny":28,"refTime":"2023-05-23T21:00:00:Z","depth":0,"parameterNumber":3,"parameterNumberName":"V-component_of_WINDS"},"data":[0,0,0,0,0,0,0,0,0,0,0,0,0,0,0,0,0,0,0,0,0,0,0,0,0,0,0,0,0,0,0,0,0,0,0,0,0,0,0,0,0,0,0,0,0,0,0,0,0,0,0,0,0,0,0,0,0,0,-2.301,-2.301,0,-2.306,-2.3061,-2.3061,-2.3098,-2.3098,-2.3098,-2.3099,-2.3145,-2.3145,-2.3146,0,0,0,0,0,0,0,0,0,0,0,0,0,-2.2939,-2.2941,-2.301,-2.301,-2.3011,-2.306,-2.3061,-2.3061,-2.3098,-2.3098,-2.3098,-2.3099,-2.3144,-2.3145,-2.3146,0,0,0,0,0,0,0,0,0,0,0,0,0,-2.2978,-2.2941,-2.301,-2.3035,-2.3038,-2.306,-2.3061,-2.3062,-2.3098,-2.3098,-2.3098,-2.3099,-2.3144,-2.3145,-2.3147,-2.3145,0,0,-2.3151,-2.3151,0,0,0,0,0,0,0,0,-2.2975,-2.298,-2.3031,-2.3034,-2.3037,-2.3073,-2.3053,-2.3089,-2.3097,-2.3075,-2.3099,-2.3099,-2.312,-2.3123,-2.3132,-2.3148,-2.315,-2.3151,-2.3152,-2.3152,-2.3153,0,0,0,0,0,0,0,-2.2973,-2.2978,-2.303,-2.3031,-2.3035,-2.3042,-2.3048,-2.306,-2.3094,-2.3077,-2.308,-2.3085,-2.3122,-2.313,-2.3133,-2.315,-2.3151,-2.3152,-2.3153,-2.3154,-2.3167,-2.3166,0,0,0,0,0,0,-2.2967,-2.2976,-2.3028,-2.3031,-2.3007,-2.3043,-2.305,-2.3061,-2.3094,-2.31,-2.3085,-2.3087,-2.3128,-2.3131,-2.3135,-2.3135,-2.3152,-2.3154,-2.3154,-2.3167,-2.3167,-2.3166,0,0,0,0,0,0,-2.2965,-2.2971,-2.3026,-2.3004,-2.3012,-2.3044,-2.3056,-2.3062,-2.307,-2.31,-2.3106,-2.3088,-2.3128,-2.3133,-2.3143,-2.3137,-2.3154,-2.3156,-2.3168,-2.3167,-2.3166,-2.3136,0,0,0,0,0,0,-2.2963,-2.2971,-2.2972,-2.3004,-2.3013,-2.3035,-2.3056,-2.3062,-2.3073,-2.3076,-2.3104,-2.3109,-2.3129,-2.314,-2.3144,-2.3139,-2.3157,-2.3168,-2.3167,-2.3167,-2.3138,-2.3134,-2.3132,0,0,0,0,0,-2.2961,-2.296,-2.2972,-2.2978,-2.3016,-2.3034,-2.3039,-2.3063,-2.3073,-2.3073,-2.3092,-2.3108,-2.3137,-2.3141,-2.3146,-2.3141,-2.3169,-2.3168,-2.3167,-2.3139,-2.3135,-2.3132,0,0,0,0,0,0,-2.2925,-2.2965,-2.2978,-2.2989,-2.3008,-2.3041,-2.3042,-2.3058,-2.3074,-2.3076,-2.3104,-2.311,-2.3116,-2.313,-2.3133,-2.3141,-2.3155,-2.3155,-2.3132,-2.3129,-2.3126,-2.3122,-2.3158,0,0,0,0,0,-2.2918,-2.2932,-2.2966,-2.2972,-2.2981,-2.301,-2.3019,-2.3036,-2.3056,-2.3064,-2.3084,-2.3101,-2.3115,-2.3122,-2.3136,-2.314,-2.3146,-2.3139,-2.3136,-2.3133,-2.3132,-2.3134,-2.3131,-2.3162,-2.3162,-2.3163,0,0,-2.2904,-2.2928,-2.2935,-2.2965,-2.2982,-2.2994,-2.3016,-2.3028,-2.3037,-2.3065,-2.3077,-2.3091,-2.3113,-2.3119,-2.3123,-2.3131,-2.3125,-2.3132,-2.3129,-2.313,-2.3133,-2.313,-2.3127,-2.3162,-2.3162,-2.3162,0,0,-2.2886,-2.2906,-2.2913,-2.293,-2.2956,-2.2975,-2.2976,-2.3007,-2.3018,-2.303,-2.3052,-2.3061,-2.3083,-2.3097,-2.3107,-2.3093,-2.3108,-2.3097,-2.3081,-2.3082,-2.308,-2.3078,-2.3072,-2.307,-2.3096,-2.3096,-2.3096,0,-2.2865,-2.2886,-2.2914,-2.2925,-2.2936,-2.2965,-2.2971,-2.2985,-2.3013,-2.302,-2.3028,-2.3057,-2.3073,-2.3083,-2.3079,-2.3087,-2.3088,-2.3094,-2.3078,-2.3076,-2.3075,-2.307,-2.3067,-2.3094,-2.3095,-2.3095,-2.3095,0,-2.2858,-2.2872,-2.2874,-2.2903,-2.2915,-2.2923,-2.2951,-2.2959,-2.2975,-2.2992,-2.3003,-2.3024,-2.3042,-2.3046,-2.306,-2.3057,-2.3061,-2.3073,-2.3088,-2.307,-2.3065,-2.3064,-2.3092,-2.3093,-2.3093,-2.3094,0,0,-2.2818,-2.2863,-2.2863,-2.2876,-2.2907,-2.2917,-2.2926,-2.2945,-2.2951,-2.2969,-2.2976,-2.2994,-2.3006,-2.3017,-2.3034,-2.3035,-2.3022,-2.3048,-2.3048,-2.3041,-2.3019,-2.3009,-2.3006,-2.3032,-2.3032,-2.3032,-2.3017,0,-2.2804,-2.2824,-2.2849,-2.2859,-2.2871,-2.2898,-2.2905,-2.2923,-2.294,-2.2951,-2.2968,-2.2981,-2.2996,-2.3003,-2.3005,-2.3023,-2.3018,-2.3025,-2.3037,-2.3037,-2.3031,-2.3004,-2.2994,-2.2978,-2.3015,-2.3015,-2.3015,0,-2.279,-2.2809,-2.2821,-2.285,-2.2856,-2.2862,-2.2882,-2.2893,-2.2914,-2.2925,-2.2938,-2.2956,-2.2965,-2.2978,-2.2989,-2.2993,-2.3,-2.3009,-2.3009,-2.3011,-2.3025,-2.3004,-2.2974,-2.2971,-2.3012,-2.3012,-2.3013,0,-2.2759,-2.2787,-2.2797,-2.2808,-2.2842,-2.2846,-2.286,-2.2882,-2.2891,-2.2908,-2.2914,-2.293,-2.2939,-2.295,-2.2971,-2.2979,-2.298,-2.2995,-2.2988,-2.2988,-2.2987,-2.2987,-2.2957,-2.2992,-2.2992,-2.2992,-2.2992,0,-2.274,-2.2746,-2.2784,-2.279,-2.2797,-2.2825,-2.283,-2.2847,-2.2865,-2.2874,-2.2897,-2.2904,-2.2933,-2.2942,-2.2959,-2.2965,-2.2969,-2.2977,-2.2981,-2.2975,-2.2974,-2.2979,-2.298,-2.2992,-2.2992,-2.2992,-2.2992,0,-2.2706,-2.2732,-2.2745,-2.2777,-2.2785,-2.2789,-2.2815,-2.2822,-2.2839,-2.285,-2.2854,-2.2881,-2.2894,-2.2917,-2.2935,-2.2946,-2.2949,-2.2956,-2.2942,-2.2945,-2.2937,-2.2937,-2.2909,-2.2906,-2.2943,-2.2943,-2.2943,0,-2.2692,-2.2698,-2.2731,-2.2739,-2.2753,-2.2766,-2.2776,-2.2803,-2.2813,-2.2837,-2.2839,-2.2855,-2.2868,-2.2887,-2.2907,-2.2921,-2.2929,-2.2918,-2.2931,-2.2924,-2.2928,-2.2927,-2.2927,-2.2915,-2.2914,-2.2914,-2.2914,0,-2.2664,-2.2677,-2.2692,-2.2712,-2.2724,-2.2741,-2.2758,-2.2763,-2.2793,-2.2802,-2.2817,-2.2827,-2.2847,-2.2861,-2.2878,-2.289,-2.2906,-2.2909,-2.2909,-2.2902,-2.2893,-2.2897,-2.2934,-2.291,-2.291,-2.291,-2.2911,-2.2911,-2.2639,-2.2645,-2.267,-2.2686,-2.2702,-2.2717,-2.2725,-2.2744,-2.2757,-2.2777,-2.2791,-2.2804,-2.2823,-2.2848,-2.286,-2.2869,-2.2876,-2.2875,-2.2875,-2.2874,-2.2871,-2.2892,-2.2872,-2.2872,-2.2872,-2.2872,-2.2872,0,-2.2612,-2.2629,-2.2644,-2.2668,-2.268,-2.2696,-2.2716,-2.2724,-2.2736,-2.2754,-2.2767,-2.2783,-2.2796,-2.2818,-2.2833,-2.2836,-2.2843,-2.2839,-2.2838,-2.2841,-2.2864,-2.2863,-2.2832,-2.2832,-2.2832,-2.2832,-2.2832,-2.2832,-2.2599,-2.261,-2.2626,-2.2644,-2.266,-2.2675,-2.2684,-2.2698,-2.2713,-2.273,-2.2742,-2.2756,-2.2775,-2.2791,-2.2804,-2.281,-2.2814,-2.2806,-2.2814,-2.2835,-2.2839,-2.2843,-2.2842,-2.2807,-2.2807,-2.279,-2.279,-2.279]}]]